Wind_Speed
101 103 103 102 100 98 95 92 91 92 92 86 81 77 75 73 73 74 73 71 72 72 71 71 71 69 64 61 59 58 57 57 57 59 59 55 52 49
104 103 101 99 95 90 85 78 75 77 79 74 72 70 68 68 68 70 71 72 72 72 71 69 68 67 64 62 60 61 59 57 57 58 58 57 55 52
103 100 95 90 84 77 71 66 65 68 71 68 65 64 65 66 67 68 68 68 68 68 68 67 66 66 64 64 63 62 59 56 54 56 58 58 57 55
95 90 84 77 70 65 62 61 63 66 70 70 67 65 65 66 67 66 66 66 66 65 65 64 64 64 64 64 65 63 61 58 56 56 57 58 56 55
84 79 75 70 66 65 65 66 68 70 74 78 77 74 71 70 70 68 65 64 64 65 64 63 63 63 63 63 63 62 61 60 58 59 60 57 54 54
76 74 73 72 72 71 72 74 76 79 81 85 86 84 81 78 76 73 68 64 63 63 65 64 64 64 63 62 62 61 60 61 61 61 61 59 55 54
75 75 76 77 78 80 81 83 86 88 90 93 93 90 86 81 78 75 72 65 60 60 62 64 65 64 63 63 61 60 59 58 59 60 58 56 55 54
81 81 82 84 86 88 91 93 94 96 97 96 92 85 79 74 71 69 67 63 58 56 59 60 61 62 62 62 60 59 58 56 55 55 53 53 53 53
89 89 89 89 91 93 93 94 93 92 89 86 80 72 67 63 60 57 57 57 55 54 57 56 57 58 59 60 60 59 58 58 56 54 52 53 55 55
82 80 79 79 79 80 81 79 76 71 67 64 61 58 55 50 46 46 47 50 50 51 54 54 54 56 57 59 60 60 60 59 58 55 51 51 55 57
66 65 65 65 62 61 61 60 56 52 48 46 46 45 43 39 36 36 38 41 43 45 49 51 52 54 55 57 58 59 60 59 55 51 49 48 51 56
58 57 56 56 53 51 50 49 45 41 36 33 33 34 32 28 27 28 30 33 35 37 40 46 48 49 49 49 50 53 54 52 47 44 43 43 45 49
56 53 51 49 48 45 44 43 41 37 30 24 22 22 22 20 21 23 26 29 29 28 30 36 39 40 39 37 38 41 42 41 38 36 38 40 41 43
53 48 46 45 44 42 40 39 37 32 25 16 12 12 13 15 17 20 24 26 25 20 20 24 27 30 30 29 31 34 35 35 33 33 35 38 39 40
47 44 43 43 41 39 38 37 33 26 17 8 6 7 10 12 16 19 21 21 18 14 13 16 20 23 25 27 28 31 32 31 30 32 34 35 36 35
42 41 42 42 40 38 36 33 28 19 7 3 4 6 8 11 14 15 14 12 11 10 10 11 15 18 21 23 25 27 28 28 29 30 31 31 30 30
41 40 41 39 35 33 32 29 20 9 3 1 3 5 7 9 9 8 8 8 8 9 9 10 14 17 19 20 22 24 26 27 27 28 28 28 29 32
41 40 39 36 31 28 25 18 9 3 3 5 6 6 5 6 6 5 3 4 5 4 5 7 11 14 16 17 18 21 23 24 24 25 27 31 34 37
40 38 36 31 27 23 15 6 3 5 8 11 11 7 1 5 5 3 2 2 2 2 5 9 12 14 15 16 17 18 20 22 25 28 30 32 33 34
36 34 31 25 21 12 4 3 6 10 13 15 11 4 2 5 5 4 2 2 4 8 10 12 12 12 13 14 16 18 21 23 25 27 28 30 31 32
30 29 24 18 10 3 3 6 10 14 15 13 8 3 2 4 5 4 4 6 9 10 10 10 11 12 13 16 18 20 21 23 25 26 28 30 32 34
26 22 16 8 2 3 6 10 14 15 14 11 9 7 6 5 5 5 6 8 10 11 12 12 13 14 15 16 18 20 23 25 27 30 32 34 35 36
20 15 7 3 4 5 9 13 15 13 13 14 15 14 13 11 8 5 5 6 8 10 11 12 13 15 17 19 21 24 26 28 29 30 30 29 28 27
Wind_Direction
300 299 298 297 296 295 294 293 292 290 288 286 284 281 278 274 270 267 264 260 258 257 257 257 258 259 260 261 261 260 257 255 253 252 252 257 259 256
299 298 297 296 295 294 292 291 290 288 288 286 283 280 276 271 268 265 262 259 257 256 256 257 258 258 257 257 257 258 257 255 254 251 251 254 257 256
299 298 296 295 294 292 291 290 288 287 288 288 287 285 281 277 272 268 263 260 257 255 254 255 256 256 255 254 252 253 254 253 253 251 250 252 255 256
298 297 295 293 291 290 289 289 288 288 288 289 288 286 284 282 278 273 268 263 259 254 252 252 252 253 253 254 253 251 251 250 250 251 251 252 254 251
299 297 294 292 290 289 288 288 287 288 288 288 289 288 285 282 278 275 271 266 261 256 252 250 250 250 251 252 253 252 250 248 248 249 250 249 247 246
298 295 292 291 290 288 287 286 286 286 286 287 288 287 285 282 278 274 271 267 263 258 254 250 249 248 248 249 250 251 250 248 247 248 250 244 241 242
297 293 291 289 288 287 286 286 285 285 286 287 287 286 284 281 277 273 270 265 261 258 255 251 248 247 247 248 249 249 249 250 250 251 252 242 237 240
297 294 291 289 287 286 285 285 285 285 286 286 286 285 284 281 277 273 268 263 257 255 255 251 248 246 246 248 248 247 247 248 252 252 250 242 237 239
298 296 294 292 290 287 285 284 284 284 285 285 286 286 284 281 276 271 264 258 253 249 250 249 247 246 246 247 247 247 246 247 249 251 250 245 239 239
303 302 301 299 296 293 289 287 285 284 284 284 285 285 284 280 275 269 260 253 249 246 247 246 245 245 245 246 247 246 246 247 248 248 246 243 239 238
312 312 310 307 303 299 295 293 290 288 286 285 283 282 280 276 271 265 258 252 246 242 244 245 244 244 244 245 246 246 245 246 247 247 243 243 240 238
318 316 313 311 308 305 302 301 299 296 292 287 281 277 274 272 267 264 261 257 250 243 242 244 243 242 241 241 243 243 242 241 241 241 240 241 239 239
320 318 316 314 313 312 310 307 306 305 302 291 276 267 266 265 262 260 261 262 259 252 244 241 237 237 237 234 236 235 234 230 230 234 237 239 240 241
321 321 319 318 318 317 313 310 310 309 306 294 268 252 251 254 256 257 260 264 265 256 239 232 227 225 226 225 223 224 223 223 230 237 237 237 238 239
320 321 321 320 319 317 314 313 312 311 306 285 237 227 236 245 253 258 262 263 262 249 227 219 217 218 220 217 215 217 221 227 235 237 235 232 229 228
317 320 321 321 320 318 316 315 315 313 304 255 221 231 243 254 261 258 254 251 249 245 236 224 215 211 209 210 212 216 223 231 233 229 223 220 219 224
319 320 322 321 319 316 315 314 315 313 313 286 265 264 264 262 251 237 233 237 246 248 240 224 215 209 209 212 218 223 225 224 220 215 215 220 228 236
319 321 323 323 320 318 316 314 315 333 339 324 317 311 280 233 210 202 217 244 254 255 243 219 206 204 205 207 208 208 207 207 210 217 225 233 240 246
320 322 324 324 322 322 322 325 355 357 344 335 332 329 243 182 178 186 246 261 245 218 190 178 177 179 181 182 187 196 205 214 223 231 239 245 252 255
320 322 324 325 326 328 339 17 4 352 345 341 341 348 162 177 190 208 217 181 167 168 166 164 168 177 189 202 213 222 229 237 243 249 253 256 257 257
322 322 324 328 334 360 28 8 359 353 349 350 1 44 146 181 196 205 190 178 180 183 187 195 208 221 232 239 246 250 253 256 258 260 261 261 260 259
324 324 327 340 57 52 15 4 360 359 7 28 49 67 98 121 134 148 168 186 202 217 229 239 249 256 261 265 268 268 266 265 265 264 264 264 264 263
326 328 342 92 88 35 13 6 7 24 53 67 73 79 86 91 101 123 169 208 233 250 263 272 277 280 280 279 277 274 272 270 269 267 266 265 264 262
Height
5574 5562 5551 5541 5530 5519 5508 5498 5489 5484 5491 5500 5497 5494 5489 5487 5487 5484 5484 5486 5487 5488 5488 5489 5490 5492 5495 5498 5500 5503 5505 5508 5511 5513 5515 5518 5520 5522
5547 5535 5524 5513 5504 5495 5486 5477 5467 5455 5453 5464 5466 5466 5463 5461 5460 5457 5457 5458 5460 5463 5465 5466 5468 5470 5473 5477 5480 5483 5486 5489 5493 5495 5499 5502 5505 5507
5520 5508 5497 5487 5479 5472 5464 5457 5450 5439 5430 5436 5439 5440 5438 5436 5436 5434 5433 5433 5435 5438 5439 5441 5444 5448 5451 5455 5458 5461 5465 5470 5474 5478 5482 5485 5489 5492
5493 5481 5472 5463 5456 5449 5443 5437 5430 5422 5413 5410 5416 5418 5417 5414 5411 5411 5412 5411 5413 5415 5415 5418 5421 5425 5429 5433 5436 5440 5444 5449 5455 5459 5464 5469 5472 5475
5466 5457 5449 5441 5436 5429 5423 5416 5410 5403 5395 5387 5388 5392 5393 5391 5387 5387 5388 5390 5392 5393 5394 5397 5400 5403 5408 5412 5416 5420 5425 5430 5436 5440 5445 5450 5455 5459
5445 5436 5428 5420 5413 5407 5401 5394 5386 5380 5373 5366 5362 5362 5363 5364 5360 5359 5362 5367 5369 5371 5372 5375 5379 5382 5387 5391 5396 5400 5404 5409 5415 5420 5425 5431 5437 5443
5425 5415 5406 5398 5389 5381 5374 5368 5360 5352 5347 5341 5336 5333 5333 5333 5331 5330 5332 5340 5347 5349 5350 5355 5357 5362 5367 5371 5375 5380 5385 5390 5396 5401 5407 5412 5419 5426
5399 5391 5382 5374 5364 5354 5346 5337 5329 5321 5315 5310 5306 5304 5303 5302 5300 5301 5304 5311 5322 5330 5328 5334 5337 5343 5348 5352 5356 5361 5367 5373 5378 5385 5390 5396 5403 5409
5370 5360 5352 5343 5331 5321 5313 5307 5301 5294 5285 5280 5279 5277 5275 5275 5274 5277 5279 5285 5295 5306 5307 5315 5320 5325 5330 5334 5339 5345 5350 5356 5362 5368 5374 5380 5386 5393
5342 5331 5320 5310 5298 5286 5279 5275 5272 5268 5262 5259 5257 5254 5253 5253 5254 5256 5259 5265 5275 5284 5289 5296 5303 5308 5313 5318 5322 5327 5333 5339 5345 5352 5358 5364 5370 5377
5324 5312 5298 5286 5276 5264 5254 5250 5248 5247 5245 5243 5240 5238 5236 5237 5238 5240 5244 5249 5258 5267 5272 5277 5285 5290 5296 5302 5306 5311 5317 5323 5330 5337 5343 5349 5355 5361
5310 5299 5286 5272 5262 5252 5243 5237 5233 5232 5231 5230 5228 5225 5225 5227 5228 5230 5233 5237 5243 5251 5257 5261 5267 5272 5279 5286 5290 5295 5302 5309 5317 5323 5329 5335 5341 5347
5296 5286 5274 5263 5253 5245 5236 5229 5223 5220 5219 5218 5217 5216 5217 5219 5222 5223 5225 5227 5231 5237 5243 5246 5252 5258 5264 5271 5276 5282 5289 5297 5304 5310 5316 5322 5328 5334
5282 5273 5263 5253 5245 5237 5229 5222 5217 5213 5210 5209 5209 5210 5212 5214 5216 5218 5219 5220 5222 5226 5231 5235 5241 5247 5253 5259 5265 5272 5278 5286 5292 5298 5303 5309 5314 5320
5273 5263 5253 5245 5237 5230 5222 5216 5211 5207 5205 5204 5205 5207 5209 5211 5212 5213 5214 5215 5217 5220 5224 5229 5234 5239 5244 5250 5257 5263 5270 5276 5281 5287 5292 5297 5303 5308
5264 5256 5247 5238 5230 5223 5216 5210 5205 5202 5201 5202 5203 5205 5206 5208 5208 5209 5211 5212 5214 5217 5221 5225 5229 5234 5239 5244 5250 5256 5262 5267 5272 5277 5282 5288 5294 5300
5255 5248 5241 5233 5226 5219 5212 5207 5203 5201 5201 5202 5202 5204 5204 5205 5205 5207 5209 5211 5213 5215 5218 5221 5225 5229 5234 5239 5244 5249 5254 5259 5265 5270 5276 5281 5287 5292
5247 5240 5234 5226 5220 5214 5209 5205 5202 5202 5202 5202 5202 5202 5202 5202 5204 5205 5208 5209 5211 5213 5215 5218 5221 5226 5230 5235 5240 5244 5249 5255 5260 5265 5270 5275 5278 5281
5240 5234 5228 5221 5216 5211 5207 5205 5204 5204 5203 5203 5201 5201 5201 5202 5204 5206 5207 5209 5210 5212 5214 5217 5221 5225 5229 5234 5238 5242 5247 5251 5255 5259 5262 5265 5267 5269
5235 5229 5223 5218 5214 5211 5209 5208 5207 5206 5205 5203 5201 5201 5202 5203 5205 5206 5208 5209 5211 5214 5217 5220 5223 5226 5230 5233 5236 5239 5242 5244 5247 5249 5251 5253 5255 5257
5230 5225 5220 5216 5214 5213 5212 5211 5209 5207 5205 5203 5202 5202 5203 5204 5206 5207 5209 5211 5214 5217 5220 5222 5224 5226 5227 5229 5231 5232 5234 5235 5237 5239 5240 5241 5242 5244
5226 5222 5218 5217 5216 5216 5215 5214 5211 5209 5206 5205 5204 5204 5205 5207 5208 5210 5212 5214 5216 5218 5220 5221 5221 5222 5222 5223 5223 5224 5225 5226 5226 5227 5227 5228 5228 5229
5224 5220 5219 5219 5220 5220 5218 5216 5213 5211 5210 5209 5209 5209 5210 5211 5213 5214 5215 5216 5217 5217 5217 5217 5216 5216 5216 5215 5215 5214 5214 5214 5213 5213 5214 5214 5215 5216